This is the latest recevied weather packets stored in our database for station/object KD8DLP-13. If no packets are shown the sender has not sent any weather packets the latest 10 day(s).
| Time | Temp. | Humidity | Pressure | Rain* | Wind** | Luminosity | Snow |
|---|---|---|---|---|---|---|---|
| 1778073123 | 9.44° C | 65% | 1013.9 hPa | 0 mm | - | 312 W/m² | - |
| 1778072820 | 8.89° C | 65% | 1013.8 hPa | 0 mm | - | 296 W/m² | - |
| 1778072517 | 8.33° C | 67% | 1013.5 hPa | 0 mm | - | 282 W/m² | - |
| 1778072215 | 7.78° C | 67% | 1013.7 hPa | 0 mm | - | 270 W/m² | - |
| 1778071913 | 8.33° C | 67% | 1013.9 hPa | 0 mm | - | 253 W/m² | - |
| 1778071611 | 8.33° C | 65% | 1013.8 hPa | 0 mm | - | 238 W/m² | - |
| 1778071308 | 8.33° C | 68% | 1014 hPa | 0 mm | - | 222 W/m² | - |
| 1778071005 | 7.78° C | 67% | 1013.8 hPa | 0 mm | - | 209 W/m² | - |
| 1778070704 | 7.78° C | 69% | 1013.7 hPa | 0 mm | - | 195 W/m² | - |
| 1778070401 | 7.78° C | 69% | 1013.6 hPa | 0 mm | - | 182 W/m² | - |
| 1778070098 | 7.22° C | 70% | 1013.6 hPa | 0 mm | - | 170 W/m² | - |
| 1778069796 | 6.67° C | 72% | 1013.6 hPa | 0 mm | - | 157 W/m² | - |
| 1778069492 | 6.67° C | 72% | 1013.5 hPa | 0 mm | - | 145 W/m² | - |
| 1778069190 | 6.11° C | 74% | 1013.5 hPa | 0 mm | - | 133 W/m² | - |
| 1778068887 | 6.11° C | 75% | 1013.7 hPa | 0 mm | - | 123 W/m² | - |
| 1778068586 | 5.56° C | 77% | 1013.4 hPa | 0 mm | - | 111 W/m² | - |
| 1778068283 | 5° C | 78% | 1013.3 hPa | 0 mm | - | 103 W/m² | - |
| 1778067980 | 5° C | 79% | 1013.2 hPa | 0 mm | - | 92 W/m² | - |
| 1778067678 | 4.44° C | 80% | 1012.9 hPa | 0 mm | - | 85 W/m² | - |
| 1778067376 | 3.89° C | 82% | 1012.8 hPa | 0 mm | - | 74 W/m² | - |
| 1778067073 | 3.33° C | 84% | 1012.7 hPa | 0 mm | - | 69 W/m² | - |
| 1778066769 | 2.78° C | 84% | 1012.8 hPa | 0 mm | - | 58 W/m² | - |
| 1778066467 | 2.78° C | 84% | 1012.8 hPa | 0 mm | - | 31 W/m² | - |
| 1778066165 | 2.78° C | 84% | 1012.3 hPa | 0 mm | - | 25 W/m² | - |
| 1778065862 | 2.78° C | 84% | 1012.5 hPa | 0 mm | - | 21 W/m² | - |
* Rain latest hour (hover to see other rain measurements)
** Current wind speed in m/s (hover to see current wind gust speed)